This is the latest recevied weather packets stored in our database for station/object OK2ILA-3. If no packets are shown the sender has not sent any weather packets the latest 10 day(s).
| Time | Temp. | Humidity | Pressure | Rain* | Wind** | Luminosity | Snow |
|---|---|---|---|---|---|---|---|
| 1778084704 | 19.44° C | 100% | 204.8 hPa | 0 mm | - | - | - |
| 1778084100 | 18.89° C | 11% | 204.8 hPa | 0 mm | - | - | - |
| 1778083490 | 20° C | 100% | 2871.4 hPa | 0 mm | - | - | - |
| 1778082874 | 20° C | 82% | 8.9 hPa | 0 mm | - | - | - |
| 1778082267 | 20.56° C | 39% | 8.9 hPa | 0 mm | - | - | - |
| 1778081661 | 20° C | 5% | 33.6 hPa | 0 mm | - | - | - |
| 1778081050 | 20° C | 18% | 4352 hPa | 0 mm | - | - | - |
| 1778080447 | 19.44° C | 58% | 4352 hPa | 0 mm | - | - | - |
| 1778079839 | 20° C | 14% | 3871.4 hPa | 0 mm | - | - | - |
| 1778079232 | 20.56° C | 80% | 409.6 hPa | 0 mm | - | - | - |
| 1778078626 | 21.11° C | 100% | 409.6 hPa | 0 mm | - | - | - |
| 1778078021 | 20.56° C | 12% | 409.6 hPa | 0 mm | - | - | - |
| 1778077414 | 20° C | 58% | 409.6 hPa | 0 mm | - | - | - |
| 1778076810 | 20.56° C | - | - | 110.49 mm | - | - | - |
| 1778076205 | 20° C | 100% | 2713.8 hPa | 0 mm | - | - | - |
| 1778075595 | 20° C | 95% | 2713.8 hPa | 0 mm | - | - | - |
| 1778074990 | 21.11° C | 89% | 2713.8 hPa | 0 mm | - | - | - |
| 1778074383 | 21.11° C | 100% | 2713.8 hPa | 0 mm | - | - | - |
| 1778073774 | 21.67° C | 12% | 1638.4 hPa | 0 mm | - | - | - |
| 1778072562 | 21.11° C | 100% | 1638.4 hPa | 0 mm | - | - | - |
| 1778071956 | 21.67° C | 12% | 1638.4 hPa | 0 mm | - | - | - |
| 1778071350 | 22.78° C | 31% | 337.6 hPa | 0 mm | - | - | - |
| 1778070745 | 20.56° C | 57% | 337.6 hPa | 0 mm | - | - | - |
| 1778070138 | 22.22° C | 57% | 4096.5 hPa | 0 mm | - | - | - |
| 1778069533 | 21.11° C | 57% | 4352 hPa | 0 mm | - | - | - |
* Rain latest 24 hours (hover to see other rain measurements)
** Current wind speed in m/s (hover to see current wind gust speed)